Previsão horária em Abkhazia

Hoje, 16 Janeiro, Sábado

Tempo Temperatura Precipitação Vento Pressão Humidade
00:00 -2°C° 1.1 mm 2 m/s 681 mmHg 96%
01:00 -2°C° 0.8 mm 2 m/s 682 mmHg 96%
02:00 -2°C° 0.8 mm 2 m/s 682 mmHg 95%
03:00 -2°C° 0 mm 2 m/s 682 mmHg 95%
04:00 -3°C° 0 mm 2 m/s 682 mmHg 94%
05:00 -4°C° 0 mm 2 m/s 682 mmHg 92%
06:00 -2°C° 0 mm 1 m/s 683 mmHg 91%
07:00 -4°C° 0 mm 2 m/s 683 mmHg 89%
08:00 -4°C° 0 mm 2 m/s 683 mmHg 87%
09:00 -3°C° 0 mm 2 m/s 683 mmHg 85%
10:00 -2°C° 0 mm 2 m/s 683 mmHg 80%
11:00 -1°C° 0 mm 2 m/s 683 mmHg 74%
12:00 +2°C° 0 mm 1 m/s 683 mmHg 69%
13:00 +3°C° 0 mm 1 m/s 682 mmHg 70%
14:00 +3°C° 0 mm 1 m/s 682 mmHg 70%
15:00 +3°C° 0 mm 1 m/s 681 mmHg 71%
16:00 +2°C° 0 mm 1 m/s 681 mmHg 72%
17:00 +1°C° 0 mm 2 m/s 680 mmHg 72%
18:00 -1°C° 0 mm 2 m/s 680 mmHg 73%
19:00 -1°C° 0 mm 2 m/s 680 mmHg 74%
20:00 +1°C° 0 mm 2 m/s 679 mmHg 75%
21:00 +1°C° 0 mm 2 m/s 679 mmHg 76%
22:00 +2°C° 0.8 mm 2 m/s 678 mmHg 80%
23:00 +1°C° 0.8 mm 3 m/s 678 mmHg 84%

Amanhã, 17 Janeiro, Domingo

Tempo Temperatura Precipitação Vento Pressão Humidade
00:00 +2°C° 0.8 mm 3 m/s 677 mmHg 88%
01:00 +2°C° 1.1 mm 3 m/s 676 mmHg 88%
02:00 +4°C° 1.1 mm 2 m/s 676 mmHg 88%
03:00 +4°C° 1.1 mm 2 m/s 675 mmHg 89%
04:00 +4°C° 1 mm 2 m/s 674 mmHg 89%
05:00 +4°C° 1 mm 2 m/s 674 mmHg 89%
06:00 +3°C° 1 mm 3 m/s 673 mmHg 88%
07:00 +3°C° 1.4 mm 3 m/s 673 mmHg 89%
08:00 +3°C° 1.4 mm 4 m/s 673 mmHg 90%
09:00 +3°C° 1.4 mm 4 m/s 672 mmHg 90%
10:00 +4°C° 1 mm 3 m/s 672 mmHg 89%
11:00 +4°C° 1 mm 3 m/s 673 mmHg 88%
12:00 +6°C° 1 mm 2 m/s 673 mmHg 87%
13:00 +5°C° 1.1 mm 2 m/s 672 mmHg 88%
14:00 +5°C° 1.1 mm 2 m/s 672 mmHg 89%
15:00 +5°C° 1.1 mm 2 m/s 672 mmHg 89%
16:00 +5°C° 1 mm 2 m/s 672 mmHg 89%
17:00 +5°C° 1 mm 2 m/s 672 mmHg 90%
18:00 +4°C° 1 mm 2 m/s 672 mmHg 90%
19:00 +3°C° 1.6 mm 3 m/s 672 mmHg 92%
20:00 +3°C° 1.6 mm 3 m/s 672 mmHg 94%
21:00 +3°C° 1.6 mm 4 m/s 673 mmHg 96%
22:00 +2°C° 3.6 mm 3 m/s 673 mmHg 96%
23:00 +2°C° 3.6 mm 3 m/s 673 mmHg 97%

Depois de amanhã, 18 Janeiro, Segunda-feira

Tempo Temperatura Precipitação Vento Pressão Humidade
00:00 +1°C° 3.6 mm 3 m/s 674 mmHg 97%
01:00 +1°C° 3.4 mm 3 m/s 674 mmHg 97%
02:00 0°C° 3.4 mm 3 m/s 675 mmHg 97%
03:00 0°C° 3.4 mm 3 m/s 676 mmHg 97%
04:00 -1°C° 2.5 mm 3 m/s 676 mmHg 97%
05:00 -2°C° 2.5 mm 3 m/s 677 mmHg 97%
06:00 -2°C° 2.5 mm 3 m/s 678 mmHg 97%
07:00 -2°C° 1.5 mm 3 m/s 678 mmHg 97%
08:00 -2°C° 1.5 mm 3 m/s 679 mmHg 97%
09:00 -4°C° 1.5 mm 3 m/s 680 mmHg 96%
10:00 -4°C° 0.7 mm 3 m/s 680 mmHg 95%
11:00 -4°C° 0.7 mm 3 m/s 680 mmHg 94%
12:00 -2°C° 0.7 mm 2 m/s 681 mmHg 93%
13:00 -3°C° 0.2 mm 2 m/s 681 mmHg 93%
14:00 -3°C° 0.2 mm 2 m/s 681 mmHg 92%
15:00 -3°C° 0.2 mm 2 m/s 681 mmHg 91%
16:00 -3°C° 0.1 mm 2 m/s 681 mmHg 92%
17:00 -4°C° 0.1 mm 2 m/s 682 mmHg 93%
18:00 -4°C° 0.1 mm 2 m/s 682 mmHg 94%
19:00 -4°C° 0.3 mm 2 m/s 682 mmHg 94%
20:00 -5°C° 0.3 mm 2 m/s 682 mmHg 93%
21:00 -5°C° 0.3 mm 2 m/s 683 mmHg 93%
22:00 -5°C° 0.6 mm 2 m/s 683 mmHg 93%
23:00 -6°C° 0.6 mm 3 m/s 683 mmHg 93%

19 Janeiro, Terça-feira

Tempo Temperatura Precipitação Vento Pressão Humidade
00:00 -6°C° 0.6 mm 3 m/s 683 mmHg 93%
01:00 -6°C° 0.5 mm 3 m/s 684 mmHg 92%
02:00 -7°C° 0.5 mm 3 m/s 684 mmHg 91%
03:00 -7°C° 0.5 mm 3 m/s 684 mmHg 90%
04:00 -8°C° 0.1 mm 3 m/s 684 mmHg 89%
05:00 -8°C° 0.1 mm 2 m/s 684 mmHg 87%
06:00 -9°C° 0.1 mm 2 m/s 683 mmHg 85%
07:00 -9°C° 0.1 mm 2 m/s 684 mmHg 85%
08:00 -8°C° 0.1 mm 2 m/s 684 mmHg 85%
09:00 -7°C° 0.1 mm 2 m/s 684 mmHg 84%
10:00 -7°C° 0.6 mm 2 m/s 684 mmHg 85%
11:00 -6°C° 0.6 mm 2 m/s 684 mmHg 86%
12:00 -5°C° 0.6 mm 2 m/s 684 mmHg 87%
13:00 -5°C° 0.6 mm 2 m/s 684 mmHg 88%
14:00 -5°C° 0.6 mm 2 m/s 684 mmHg 89%
15:00 -5°C° 0.6 mm 2 m/s 683 mmHg 90%
16:00 -5°C° 0.3 mm 2 m/s 684 mmHg 91%
17:00 -4°C° 0.3 mm 1 m/s 684 mmHg 92%
18:00 -6°C° 0.3 mm 1 m/s 685 mmHg 93%
19:00 -6°C° 0.1 mm 1 m/s 685 mmHg 91%
20:00 -7°C° 0.1 mm 1 m/s 685 mmHg 90%
21:00 -7°C° 0.1 mm 1 m/s 685 mmHg 88%
22:00 -8°C° 0 mm 1 m/s 685 mmHg 87%
23:00 -9°C° 0 mm 2 m/s 685 mmHg 85%

20 Janeiro, Quarta-feira

Tempo Temperatura Precipitação Vento Pressão Humidade
00:00 -9°C° 0 mm 2 m/s 686 mmHg 84%
01:00 -10°C° 0 mm 2 m/s 686 mmHg 82%
02:00 -10°C° 0 mm 2 m/s 686 mmHg 80%
03:00 -10°C° 0 mm 2 m/s 686 mmHg 78%
04:00 -10°C° 0 mm 2 m/s 686 mmHg 76%
05:00 -10°C° 0 mm 2 m/s 686 mmHg 74%
06:00 -12°C° 0 mm 2 m/s 686 mmHg 72%
07:00 -10°C° 0 mm 2 m/s 686 mmHg 73%
08:00 -9°C° 0 mm 2 m/s 687 mmHg 73%
09:00 -8°C° 0 mm 2 m/s 687 mmHg 73%
10:00 -7°C° 0 mm 2 m/s 687 mmHg 73%
11:00 -6°C° 0 mm 2 m/s 687 mmHg 72%
12:00 -4°C° 0 mm 2 m/s 688 mmHg 72%
13:00 -4°C° 0 mm 2 m/s 688 mmHg 75%
14:00 -4°C° 0 mm 2 m/s 688 mmHg 78%
15:00 -5°C° 0 mm 2 m/s 687 mmHg 81%
16:00 -4°C° 0.1 mm 1 m/s 688 mmHg 84%
17:00 -6°C° 0.1 mm 1 m/s 688 mmHg 87%
18:00 -7°C° 0.1 mm 1 m/s 688 mmHg 90%
19:00 -8°C° 0 mm 1 m/s 689 mmHg 88%
20:00 -9°C° 0 mm 2 m/s 689 mmHg 86%
21:00 -9°C° 0 mm 2 m/s 689 mmHg 84%
22:00 -10°C° 0 mm 2 m/s 689 mmHg 83%
23:00 -10°C° 0 mm 2 m/s 689 mmHg 82%

21 Janeiro, Quinta-feira

Tempo Temperatura Precipitação Vento Pressão Humidade
00:00 -10°C° 0 mm 2 m/s 689 mmHg 80%
01:00 -12°C° 0 mm 2 m/s 690 mmHg 79%
02:00 -12°C° 0 mm 2 m/s 690 mmHg 79%
03:00 -12°C° 0 mm 2 m/s 690 mmHg 78%
04:00 -12°C° 0 mm 2 m/s 690 mmHg 77%
05:00 -12°C° 0 mm 2 m/s 690 mmHg 77%
06:00 -12°C° 0 mm 2 m/s 690 mmHg 77%
07:00 -10°C° 0 mm 2 m/s 691 mmHg 76%
08:00 -10°C° 0 mm 2 m/s 691 mmHg 75%
09:00 -9°C° 0 mm 2 m/s 692 mmHg 75%
10:00 -7°C° 0 mm 2 m/s 692 mmHg 74%
11:00 -6°C° 0 mm 2 m/s 692 mmHg 73%
12:00 -2°C° 0 mm 1 m/s 693 mmHg 73%
13:00 -2°C° 0 mm 1 m/s 692 mmHg 75%
14:00 -2°C° 0 mm 1 m/s 692 mmHg 77%
15:00 -2°C° 0 mm 1 m/s 692 mmHg 79%
16:00 -4°C° 0 mm 1 m/s 692 mmHg 81%
17:00 -7°C° 0 mm 2 m/s 692 mmHg 83%
18:00 -9°C° 0 mm 2 m/s 692 mmHg 85%
19:00 -9°C° 0 mm 2 m/s 692 mmHg 79%
20:00 -9°C° 0 mm 2 m/s 692 mmHg 73%
21:00 -10°C° 0 mm 3 m/s 692 mmHg 67%
22:00 -10°C° 0 mm 3 m/s 692 mmHg 63%
23:00 -10°C° 0 mm 3 m/s 692 mmHg 59%
Mostrar mais